TimeEDT,TemperatureF,Dew PointF,Humidity,Sea Level PressureIn,VisibilityMPH,Wind Direction,Wind SpeedMPH,Gust SpeedMPH,PrecipitationIn,Events,Conditions,WindDirDegrees,DateUTC
12:53 AM,80.1,75.9,87,29.88,10.0,WSW,6.9,-,N/A,Thunderstorm,Thunderstorm,250,2013-09-03 04:53:00
1:34 AM,78.8,73.4,83,29.86,10.0,WSW,4.6,-,N/A,,Clear,250,2013-09-03 05:34:00
1:53 AM,78.1,72.0,81,29.87,10.0,WSW,8.1,-,N/A,,Clear,250,2013-09-03 05:53:00
2:53 AM,77.0,70.0,79,29.85,10.0,West,5.8,-,N/A,,Clear,260,2013-09-03 06:53:00
3:53 AM,77.0,70.0,79,29.86,10.0,SW,8.1,-,N/A,,Clear,230,2013-09-03 07:53:00
4:53 AM,75.9,70.0,82,29.86,10.0,WSW,5.8,-,N/A,,Clear,240,2013-09-03 08:53:00
5:53 AM,75.9,70.0,82,29.87,10.0,WSW,3.5,-,N/A,,Clear,250,2013-09-03 09:53:00
6:53 AM,73.9,70.0,87,29.88,10.0,West,3.5,-,N/A,,Clear,260,2013-09-03 10:53:00
7:53 AM,75.9,71.1,85,29.90,10.0,WSW,3.5,-,N/A,,Partly Cloudy,250,2013-09-03 11:53:00
8:53 AM,77.0,72.0,84,29.92,10.0,SW,6.9,-,N/A,,Clear,230,2013-09-03 12:53:00
9:53 AM,78.1,72.0,81,29.92,10.0,SW,4.6,-,N/A,,Scattered Clouds,230,2013-09-03 13:53:00
10:53 AM,81.0,72.0,74,29.92,10.0,South,8.1,-,N/A,,Scattered Clouds,180,2013-09-03 14:53:00
11:53 AM,82.9,73.9,74,29.90,10.0,SSW,11.5,-,N/A,,Partly Cloudy,200,2013-09-03 15:53:00
12:53 PM,84.0,75.0,74,29.88,10.0,SSW,13.8,-,N/A,,Partly Cloudy,200,2013-09-03 16:53:00
1:53 PM,84.9,75.0,72,29.87,10.0,South,15.0,-,N/A,,Partly Cloudy,190,2013-09-03 17:53:00
2:53 PM,84.9,75.9,74,29.86,10.0,SSW,17.3,24.2,N/A,,Clear,210,2013-09-03 18:53:00
3:53 PM,84.0,75.9,76,29.83,10.0,SSW,15.0,-,N/A,,Partly Cloudy,210,2013-09-03 19:53:00
4:00 PM,82.4,75.2,79,29.83,10.0,SSW,13.8,-,N/A,,Clear,200,2013-09-03 20:00:00
4:53 PM,75.0,70.0,84,29.84,10.0,SSW,8.1,-,0.01,,Mostly Cloudy,210,2013-09-03 20:53:00
5:53 PM,80.1,71.1,74,29.86,10.0,SSW,10.4,-,0.01,,Clear,210,2013-09-03 21:53:00
6:53 PM,78.1,70.0,76,29.86,10.0,SW,4.6,-,N/A,,Clear,220,2013-09-03 22:53:00
7:53 PM,75.0,71.1,87,29.89,10.0,SW,5.8,-,N/A,,Scattered Clouds,230,2013-09-03 23:53:00
8:53 PM,79.0,73.9,84,29.91,10.0,SW,6.9,-,N/A,,Clear,230,2013-09-04 00:53:00
9:53 PM,75.0,72.0,90,29.93,10.0,Calm,Calm,-,N/A,,Clear,0,2013-09-04 01:53:00
10:53 PM,78.1,75.0,90,29.93,9.0,WSW,3.5,-,N/A,,Partly Cloudy,250,2013-09-04 02:53:00
11:53 PM,75.9,73.9,94,29.95,8.0,Calm,Calm,-,N/A,,Clear,0,2013-09-04 03:53:00